Location: Newark
(39.0622°N, 106.5590°E)
Time: 07:07:33
(UTC+00:00)

SR - Visible Passes

Search period start: 19 January 2020 00:00
Search period end: 29 January 2020 00:00
Orbit: 574 x 882 km, 66.7° (Epoch: 18 January)

Date Brightness Start Highest point End Pass type
(mag) Time Alt. Az. Time Alt. Az. Time Alt. Az.
20 Jan ? 23:28:01 10° N 23:30:50 14° NE 23:33:34 10° ENE visible
22 Jan ? 23:29:47 10° N 23:34:05 22° NE 23:38:08 10° E visible
23 Jan ? 22:41:16 10° NNE 22:43:48 13° NE 22:46:16 10° ENE visible
24 Jan ? 23:32:02 10° NNW 23:37:10 37° NE 23:41:53 10° ESE visible
25 Jan ? 22:42:55 10° N 22:47:05 21° NE 22:50:59 10° E visible
26 Jan ? 21:54:31 10° NNE 21:56:46 12° NE 21:58:56 10° ENE visible
26 Jan ? 23:34:33 10° NNW 23:40:03 67° ENE 23:45:01 10° SE visible
27 Jan ? 22:45:08 10° NNW 22:50:10 35° NE 22:54:48 10° ESE visible
28 Jan ? 21:56:04 10° N 22:00:04 20° NE 22:03:49 10° E visible
28 Jan ? 23:37:20 10° NW 23:42:43 64° WSW 23:47:36 10° SSE visible
